CAPE
2 0 0 0 0 0 7 0 0 20 14 7 10 15 19 22 0 0 0 0 0 0 0 0 0 142 541 851 998 997 1046 836 677 640 514 479 486 381 442 512 543 497 474 470
1 0 0 0 0 2 26 15 14 15 37 23 15 0 0 21 5 0 0 0 0 0 0 0 0 0 130 789 948 913 1020 817 787 735 695 471 500 521 417 408 503 654 594 516
0 2 3 1 14 10 9 18 18 4 25 37 21 2 0 2 0 0 0 0 0 0 0 0 0 0 0 299 694 847 833 785 689 743 611 555 469 537 557 449 225 174 154 60
0 1 13 1 0 0 0 0 2 10 2 0 8 0 0 0 0 0 0 0 0 0 0 0 0 0 0 6 180 324 562 773 627 672 619 472 343 321 271 507 70 4 0 0
2 0 0 6 0 0 8 0 0 5 0 0 1 0 0 0 0 0 0 0 0 0 0 0 0 0 0 0 0 2 59 300 168 374 408 367 208 121 31 2 0 0 0 0
2 1 0 0 0 0 0 0 12 0 3 6 0 0 0 0 0 0 0 0 0 0 0 0 0 0 0 0 0 0 0 0 0 14 75 139 64 0 0 0 0 0 0 0
0 0 0 0 0 0 1 0 0 0 0 0 0 0 0 0 0 0 0 0 0 0 0 0 0 0 0 0 0 0 0 0 0 0 0 0 0 0 0 0 0 0 0 0
0 0 0 0 0 0 0 0 0 0 0 0 0 0 0 0 0 0 0 0 0 0 0 0 0 0 0 0 0 0 0 0 0 0 0 0 0 0 0 0 0 0 0 0
0 0 0 0 0 0 0 0 0 0 0 0 0 0 0 0 0 0 0 0 0 0 0 0 0 0 0 0 0 0 0 0 0 0 0 0 0 0 0 0 0 0 0 0
0 0 0 0 0 0 0 0 0 0 0 0 0 0 0 0 0 0 0 0 0 0 0 0 0 0 0 0 0 0 0 0 0 0 0 0 0 0 0 0 0 0 0 0
0 0 0 0 0 0 0 0 0 0 0 0 0 0 0 0 0 0 0 0 0 0 0 0 0 0 0 0 0 0 0 0 0 0 0 0 0 0 0 0 0 0 0 0
0 0 0 0 0 0 0 0 0 0 0 0 0 0 0 0 0 0 0 0 0 0 0 0 0 0 0 0 0 0 0 0 0 0 0 0 0 0 0 0 0 0 0 0
0 0 0 0 0 0 0 0 3 0 0 0 0 0 0 0 0 0 0 0 0 0 0 0 0 0 0 0 0 0 0 0 0 0 0 0 0 0 0 0 0 0 0 0
0 0 0 0 0 0 0 0 0 0 0 0 0 0 0 0 0 0 0 0 0 0 0 0 0 0 0 0 0 0 0 0 0 0 0 0 0 0 0 0 0 0 0 0
0 0 0 0 0 0 0 0 0 0 0 0 0 0 0 0 0 0 0 0 0 0 0 0 0 0 0 0 0 0 0 0 0 0 0 0 0 0 0 0 0 0 0 0
0 0 0 0 0 0 0 0 0 0 0 0 0 0 0 0 0 0 0 0 0 0 0 0 0 0 0 0 0 0 0 0 0 0 0 0 0 0 0 0 0 0 0 0
0 0 0 0 0 0 0 0 0 0 0 0 0 0 0 0 0 0 0 0 0 0 0 0 0 0 0 0 0 0 0 0 0 0 0 0 0 0 0 0 0 0 0 0
0 0 0 0 0 0 0 0 0 0 0 0 0 0 0 0 0 0 0 0 0 0 0 0 0 0 0 0 0 0 0 0 0 0 0 0 0 0 0 0 0 0 0 0
0 0 0 0 0 0 0 0 0 0 0 0 0 0 0 0 0 0 0 0 0 0 0 0 0 0 0 0 0 0 0 0 0 0 0 0 0 0 0 0 0 0 0 0
0 0 0 0 0 0 0 0 0 0 0 0 0 0 0 0 0 0 0 0 0 0 0 0 0 0 0 0 0 0 0 0 0 0 0 0 0 0 0 0 0 0 0 0
0 0 0 0 0 0 0 0 0 0 0 0 0 0 0 0 0 0 0 0 0 0 0 0 0 0 0 0 0 0 0 0 0 0 0 0 0 0 0 0 0 0 0 0
0 0 0 0 0 0 0 0 0 0 0 0 0 0 0 0 0 0 0 0 0 0 0 0 0 0 0 0 0 0 0 0 0 0 0 0 0 0 0 0 0 0 0 0
0 0 0 0 0 0 0 0 0 0 0 0 0 0 0 0 0 0 0 0 0 0 0 0 0 0 0 0 0 0 0 0 0 0 0 0 0 0 0 0 0 0 0 0
0 0 0 0 0 0 0 0 0 0 0 0 0 0 0 0 0 0 0 0 0 0 0 0 0 0 0 0 0 0 0 0 0 0 0 0 0 0 0 0 0 0 1 0
0 0 0 0 0 0 0 0 0 0 0 0 0 0 0 0 0 4 0 0 0 0 0 0 0 0 0 0 0 0 0 0 0 0 0 0 0 0 0 0 0 1 0 0
0 2 0 0 5 1 0 0 0 0 0 0 0 0 0 0 0 2 1 0 0 0 0 0 0 0 0 0 0 0 0 0 0 0 0 0 0 0 0 0 1 2 0 0
CIN
0 -1 0 0 0 0 -20 0 0 -9 -33 -7 0 -2 -13 -7 -12 0 0 0 0 0 0 0 -1 -126 -75 -30 -19 -31 -20 -29 -34 -23 -19 -14 -11 -15 -23 -20 -15 -13 -25 -34
0 0 0 0 0 -27 -20 -12 -25 -5 -24 -23 -16 -7 0 -30 -17 0 0 0 0 0 0 0 0 0 -129 -26 -25 -27 -27 -23 -17 -17 -23 -25 -28 -21 -19 -27 -18 -24 -29 -30
0 0 -3 -9 -32 -15 -6 -2 -9 -4 -5 -11 -35 -19 0 -14 0 0 0 0 0 0 0 0 0 0 0 -83 -31 -31 -29 -26 -26 -17 -23 -33 -32 -20 -17 -28 -58 -93 -94 -123
0 0 -2 -3 0 0 0 -1 -34 -33 -12 0 -5 0 0 0 0 0 0 0 0 0 0 0 0 0 0 -120 -120 -119 -86 -47 -55 -35 -21 -31 -33 -33 -63 -44 -95 -138 -19 0
0 0 -3 -17 0 0 -16 -3 0 -1 0 0 -4 0 0 0 0 0 0 0 0 0 0 0 0 0 0 0 0 -291 -279 -174 -171 -115 -75 -63 -70 -109 -196 -63 0 0 0 0
0 0 0 -1 0 0 0 -2 -18 -4 -10 -19 0 0 0 0 0 0 0 0 0 0 0 0 0 0 0 0 0 0 0 0 0 -214 -243 -155 -196 0 0 0 0 0 0 0
0 0 0 0 0 0 0 0 0 -4 -1 0 0 0 0 0 0 0 0 0 0 0 0 0 0 0 0 0 0 0 0 0 0 0 0 0 0 0 0 0 0 0 0 0
0 0 0 0 0 0 -4 0 0 0 0 0 0 0 0 0 0 0 0 0 0 0 0 0 0 0 0 0 0 0 0 0 0 0 0 0 0 0 0 0 0 0 0 0
0 0 0 -1 0 0 -10 0 0 0 0 0 0 0 0 0 0 0 0 0 0 0 0 0 0 0 0 0 0 0 0 0 0 0 0 0 0 0 0 0 0 0 0 0
0 -1 0 0 0 0 0 0 0 0 0 0 0 0 0 0 0 0 0 0 0 0 0 0 0 0 0 0 0 0 0 0 0 0 0 0 0 0 0 0 0 0 0 0
0 0 0 -3 0 0 0 0 0 0 0 0 0 0 0 0 0 0 0 0 0 0 0 0 0 0 0 0 0 0 0 0 0 0 0 0 0 0 0 0 0 0 0 0
0 0 0 0 0 0 0 0 0 0 0 0 0 0 0 0 0 0 0 0 0 0 0 0 0 0 0 0 0 0 0 0 0 0 0 0 0 0 0 0 0 0 0 0
0 0 0 0 0 0 0 0 -15 0 0 0 0 0 0 0 0 0 0 0 0 0 0 0 0 0 0 0 0 0 0 0 0 0 0 0 0 0 0 0 0 0 0 0
0 0 0 0 0 0 0 0 0 0 0 0 0 0 0 0 0 0 0 0 0 0 0 0 0 0 0 0 0 0 0 0 0 0 0 0 0 0 0 0 0 0 0 0
0 0 0 0 0 0 0 0 0 -4 0 0 0 0 0 0 0 0 0 0 0 0 0 0 0 0 0 0 0 0 0 0 0 0 0 0 0 0 0 0 0 0 0 0
0 0 0 0 0 0 0 0 0 0 0 0 0 0 0 0 0 0 0 0 0 0 0 0 0 0 0 0 0 0 0 0 0 0 0 0 0 0 0 0 0 0 0 0
-1 -1 0 0 0 0 0 0 0 0 0 0 0 0 0 0 0 0 0 0 0 0 0 0 0 0 0 0 0 0 0 0 0 0 0 0 0 0 0 0 0 0 0 0
-3 0 0 0 0 0 0 0 0 0 0 0 0 0 0 0 0 0 0 0 0 0 0 0 0 0 0 0 0 0 0 0 0 0 0 0 0 0 0 0 0 0 0 0
0 0 0 0 0 0 0 0 0 0 0 0 0 0 0 0 0 0 0 0 0 0 0 0 0 0 0 0 0 0 0 0 0 0 0 0 0 0 0 0 0 0 0 0
0 0 0 0 0 0 0 0 0 0 0 0 0 0 0 0 0 0 0 0 0 0 0 0 0 0 0 0 0 0 0 0 0 0 0 0 0 0 0 0 0 0 0 0
0 0 0 0 -1 0 0 0 0 0 0 0 0 0 0 0 0 0 0 0 0 0 0 0 0 0 0 0 0 0 0 0 0 0 0 0 0 0 0 0 0 0 0 0
0 0 0 0 0 0 0 0 0 0 0 0 0 0 0 0 0 0 0 0 0 0 0 0 0 0 0 0 0 0 0 0 0 0 0 0 0 0 0 0 0 0 0 0
0 0 0 0 0 0 0 0 0 0 0 0 0 0 0 0 0 0 0 0 0 0 0 0 0 0 0 0 0 0 0 0 0 0 0 0 0 0 0 0 0 0 0 0
0 0 0 0 0 0 0 0 0 0 0 0 0 0 0 0 0 0 0 0 0 0 0 0 0 0 0 0 0 0 0 0 0 0 0 0 0 0 0 0 0 0 0 0
0 0 0 0 0 0 0 0 0 0 0 0 0 0 0 0 0 -51 0 0 0 0 0 0 0 0 0 0 0 0 0 0 0 0 0 0 0 0 0 0 0 0 0 0
-2 -7 0 -1 -7 -19 0 0 0 0 0 0 0 0 0 0 0 -37 -17 0 0 0 0 0 0 0 0 0 0 0 0 0 0 0 0 0 0 0 0 0 0 0 0 0
Wind_Speed
22 24 35 35 34 30 36 43 39 33 27 27 31 30 26 24 24 23 23 27 24 23 18 15 18 19 17 19 17 15 15 14 14 14 15 14 14 13 14 15 14 10 10 10
22 25 24 27 32 31 32 34 35 33 29 32 32 32 31 27 28 28 28 30 33 29 23 20 18 21 21 20 18 17 16 17 16 12 12 13 11 13 13 14 13 11 11 14
21 20 22 26 29 30 27 33 33 30 25 28 27 31 37 34 33 30 29 29 33 32 25 22 19 20 22 24 20 20 18 17 18 15 13 15 14 14 14 14 15 14 15 17
15 17 20 21 24 24 28 24 26 30 31 31 29 31 30 30 29 28 24 28 27 24 26 24 24 22 22 23 21 22 19 16 15 16 16 17 18 18 16 13 14 15 16 19
12 13 15 12 18 26 26 20 17 19 21 25 28 27 24 18 25 26 26 24 25 25 25 21 22 24 22 20 21 19 20 19 19 17 18 17 18 15 12 10 11 14 15 17
13 15 12 15 17 12 14 19 17 17 19 25 22 23 24 17 16 22 24 20 18 18 21 21 20 26 24 20 21 22 23 21 21 21 19 17 16 16 15 16 17 17 17 19
18 18 17 14 9 9 16 18 21 25 26 25 22 21 21 18 18 20 21 19 17 17 17 20 20 22 23 21 21 22 23 25 22 20 19 18 17 17 18 19 19 18 20 21
9 9 10 11 13 13 24 16 23 28 29 25 19 24 22 20 19 14 13 12 13 18 19 17 15 16 21 21 21 23 21 22 21 18 18 17 17 16 16 18 18 20 20 21
12 13 14 13 13 14 15 16 15 19 19 23 24 23 20 12 13 14 17 18 20 21 21 18 15 15 19 21 21 21 21 21 20 19 16 17 16 17 18 18 18 20 20 22
9 6 13 15 14 12 15 18 19 19 23 25 24 24 21 12 14 15 16 18 19 19 18 18 15 15 17 19 21 20 20 21 20 19 19 16 17 17 16 18 19 20 22 23
12 14 1 14 18 15 15 16 17 17 17 21 22 22 22 9 10 12 14 16 17 18 17 17 18 16 17 17 17 18 17 16 18 18 18 18 19 20 20 22 22 23 23 24
13 12 11 13 15 13 17 17 18 21 22 20 19 22 11 8 9 9 11 13 14 16 16 16 15 9 9 14 16 17 17 16 16 16 16 16 17 17 18 19 21 22 23 24
15 11 10 15 19 21 14 14 17 18 20 24 23 21 15 11 11 13 16 19 19 18 16 16 13 9 4 6 11 15 16 18 19 21 16 15 20 22 23 23 24 23 24 25
15 12 13 9 15 15 19 17 10 13 20 24 25 23 19 17 18 22 24 21 21 18 18 15 13 10 7 6 6 10 14 16 18 19 20 20 19 21 19 18 19 20 20 21
15 14 16 17 19 18 18 18 12 14 17 19 26 23 25 27 24 27 29 31 26 22 19 17 15 12 10 8 8 8 7 7 6 8 9 11 12 12 13 16 17 19 21 22
14 16 18 20 22 23 25 26 26 26 29 30 32 37 28 35 41 37 31 28 28 27 23 21 19 15 11 9 7 6 6 4 4 5 6 8 9 9 12 14 15 17 19 20
12 13 16 17 20 23 27 27 26 29 30 30 34 37 32 32 31 31 30 29 31 32 32 30 24 18 14 11 9 7 6 5 5 6 6 5 7 10 13 14 15 17 19 20
11 10 10 10 18 21 18 20 21 23 28 29 34 35 30 27 23 25 28 31 33 32 33 33 30 21 14 10 9 8 8 8 7 7 7 6 7 10 12 13 16 18 19 19
9 8 6 5 12 25 25 20 21 23 27 26 26 23 22 24 27 29 26 26 29 30 31 32 26 23 15 12 10 9 9 9 10 10 9 8 9 10 11 14 16 18 18 19
10 9 7 7 3 1 23 22 21 24 30 23 21 23 24 26 31 30 27 30 31 31 31 30 29 25 21 14 13 13 12 12 13 11 9 8 10 11 12 14 17 17 18 19
12 9 5 4 2 11 25 22 23 28 26 23 23 24 26 27 27 29 29 30 29 29 30 28 26 24 23 12 10 10 11 12 11 10 9 9 10 10 12 14 15 15 16 17
13 13 11 10 7 5 17 21 25 25 24 27 28 28 29 28 28 29 27 28 27 27 26 23 21 19 16 10 6 7 7 8 8 9 10 11 12 12 12 13 16 15 15 14
15 12 13 11 10 12 17 18 23 27 34 34 34 33 31 32 32 30 27 25 24 23 22 20 18 16 15 12 9 9 10 8 9 10 12 12 12 12 13 14 15 16 14 14
14 14 11 11 11 19 22 26 29 30 30 34 33 33 34 34 32 29 24 21 20 20 19 17 16 15 15 15 14 12 10 9 10 13 13 13 13 15 15 16 15 15 13 13
12 13 13 10 13 24 19 32 34 38 36 37 38 34 36 36 33 27 23 19 17 16 17 16 15 14 14 14 14 12 12 11 13 13 13 13 14 14 15 15 13 12 13 11
14 16 17 16 17 20 23 29 32 33 34 35 35 38 35 32 26 24 22 19 17 17 16 15 15 16 15 15 15 14 14 14 14 16 15 13 13 14 15 15 16 13 16 11
Wind_Direction
226 215 213 210 212 220 210 214 220 224 225 224 227 235 241 241 243 245 248 250 255 260 264 267 263 261 265 259 254 252 255 265 273 258 265 269 269 276 279 282 284 288 299 309
209 210 210 215 215 216 213 213 219 222 221 229 236 249 255 252 251 252 253 253 253 261 264 264 267 263 261 262 255 253 253 262 267 262 267 270 269 277 280 289 295 301 309 312
202 202 209 209 210 210 214 215 214 220 227 243 237 250 245 251 252 257 258 258 259 259 261 260 263 263 262 258 257 256 258 260 264 265 268 276 277 279 281 287 291 297 304 307
206 212 196 204 214 217 215 220 220 228 230 240 243 251 257 255 255 257 260 260 264 267 262 259 260 261 259 259 259 259 260 257 259 260 262 265 270 272 282 287 291 299 307 311
180 188 200 211 218 227 224 216 218 221 231 235 240 250 256 260 254 258 261 265 265 269 267 261 254 256 258 257 256 258 259 260 262 264 265 267 271 279 287 292 297 306 314 318
165 186 201 212 214 227 220 216 215 230 242 241 248 253 255 261 254 263 266 272 273 270 271 274 261 259 254 254 256 257 260 263 265 265 265 265 268 273 278 285 291 299 306 312
165 168 180 199 210 214 197 207 223 234 241 244 251 256 267 273 269 275 278 280 279 282 280 274 263 257 258 254 256 259 259 262 265 266 269 268 270 273 276 282 288 293 300 307
190 201 226 233 220 215 214 247 235 236 238 244 259 257 269 275 282 291 299 305 303 298 283 276 263 251 253 258 260 263 261 261 262 264 266 269 273 277 281 284 289 294 299 306
223 244 260 256 249 243 242 247 261 250 256 251 259 272 289 295 291 296 292 298 297 296 300 283 269 255 256 259 262 261 259 261 262 263 266 272 275 278 281 286 292 296 303 307
269 3 278 263 260 266 259 259 253 259 250 254 259 269 277 282 291 291 296 297 301 307 309 305 280 267 268 265 263 265 258 254 260 264 267 272 281 284 288 291 295 299 303 307
234 45 29 256 246 261 262 256 260 263 265 260 262 271 276 277 299 305 298 302 308 311 315 312 299 285 275 271 268 266 260 255 257 261 267 273 279 282 287 293 297 300 304 309
334 5 65 266 266 292 269 263 263 255 256 266 267 269 285 301 309 311 306 311 324 326 329 329 324 320 287 278 273 269 261 258 260 260 272 275 273 281 290 295 301 304 306 310
253 312 316 272 266 260 289 283 274 276 273 263 268 276 283 291 297 297 296 297 304 312 323 331 342 349 337 293 281 274 269 268 269 271 266 274 280 283 287 288 294 302 305 303
308 334 317 341 297 296 275 277 291 290 280 276 273 280 278 285 288 292 291 297 299 305 309 320 325 334 336 325 303 287 279 274 270 273 277 278 283 285 289 297 302 307 310 311
311 325 300 303 290 294 290 288 289 287 287 286 282 283 280 280 290 292 292 290 292 299 304 305 309 313 317 313 304 298 288 280 271 277 285 289 289 297 302 307 309 309 309 310
349 329 312 305 291 289 289 285 285 286 282 278 281 278 288 282 276 285 295 296 291 294 297 297 296 295 294 283 279 277 274 257 260 275 288 297 300 306 311 314 315 316 316 316
37 11 343 331 311 303 294 293 289 285 284 283 280 279 293 292 292 295 297 297 296 295 294 296 298 292 287 277 260 252 245 249 264 278 289 296 307 310 311 314 316 317 316 317
85 45 21 4 335 314 316 321 316 304 296 291 285 288 295 300 306 305 304 300 299 301 300 296 297 298 281 274 250 255 257 253 260 269 280 292 307 312 315 317 318 319 319 320
76 80 112 134 353 315 314 322 319 312 306 308 302 307 309 306 304 303 311 311 308 306 305 305 300 302 288 262 251 249 260 258 265 271 279 288 302 310 314 317 320 321 320 320
125 74 128 59 87 52 316 326 325 320 303 318 319 315 313 313 300 304 312 311 310 307 305 301 300 296 293 274 254 253 258 264 267 272 278 290 302 310 315 318 321 323 321 322
84 94 115 149 147 352 319 329 327 309 309 320 321 317 313 310 309 309 310 308 311 309 305 302 302 301 293 285 247 249 261 265 270 277 283 293 303 311 315 320 325 326 326 326
73 70 71 77 62 43 359 344 324 323 320 317 315 314 311 311 310 311 313 312 313 311 311 312 309 310 310 303 252 255 264 278 279 282 288 295 305 312 318 321 321 325 325 326
67 75 62 72 61 28 4 348 338 328 314 310 307 307 306 305 306 307 310 314 316 317 319 320 314 309 309 310 300 287 287 287 287 289 292 298 305 310 317 319 319 319 326 325
62 56 53 39 40 3 353 338 335 335 329 319 313 310 306 303 302 303 307 312 315 318 321 324 325 316 307 305 301 299 298 297 295 294 298 302 303 308 312 315 315 314 320 323
50 41 29 15 3 350 350 333 327 321 325 317 310 312 303 298 298 300 301 306 312 315 316 319 322 321 314 314 310 310 307 304 302 303 304 304 306 308 311 314 315 315 316 319
44 34 22 9 0 349 340 339 334 332 325 318 312 305 304 300 302 302 298 297 302 305 312 316 318 312 309 310 309 311 311 308 305 301 304 307 309 310 311 311 312 313 311 319